Location: Fazenda Monte Alegre
(4.8500°S, 38.0333°W)
Time: 17:07:00
(UTC+00:00)

ARIANE 3 DEB - Pass Details

Date: 24 September 2020
Orbit: 274 x 4821 km, 6.8° (Epoch: 24 October)

Event Time Altitude Azimuth Distance (km) Brightness Sun altitude
Rises 20:46:42 0° 292° (WNW) 1,882 7.0 -5.6°
Reaches altitude 10° 20:48:24 10° 303° (WNW) 1,138 5.4 -6.0°
Maximum altitude 20:50:36 34° 13° (NNE) 599 2.9 -6.6°
Drops below altitude 10° 20:53:53 10° 80° (E) 1,727 4.7 -7.4°
Enters shadow 20:54:08 - 82° (E) 1,839 4.8 -7.5°
